SCP
0 0 0 0 0 0 0 0 0 0 0 0 0 0 0 0 0 0 0 0 0 0 0 0 0 0 0 0 0 1 1 1 1 1 2 4 4 3 3 2 1 1 1 1
0 0 0 0 0 0 0 0 0 0 0 0 0 0 0 0 0 0 0 0 0 0 0 0 0 0 0 0 0 1 1 1 1 1 1 2 2 2 1 1 1 1 1 0
0 0 0 0 0 0 0 0 0 0 0 0 0 0 0 0 0 0 0 0 0 0 0 0 0 0 0 0 0 0 1 1 1 1 1 1 0 0 0 0 0 0 0 0
0 0 0 0 0 0 0 0 0 0 0 0 0 0 0 0 0 0 0 0 0 0 0 0 0 0 0 0 0 1 1 1 1 1 1 0 0 0 0 0 0 0 0 0
0 0 0 0 0 0 0 0 0 0 0 0 0 0 0 0 0 0 0 0 0 0 0 0 0 0 0 0 0 1 1 1 1 1 1 0 0 0 0 0 0 0 0 0
0 0 0 0 0 0 0 0 0 0 0 0 0 0 0 0 0 0 0 0 0 0 0 0 0 0 0 0 0 0 1 1 0 0 0 0 0 0 0 0 0 0 0 0
0 0 0 0 0 0 0 0 0 0 0 0 0 0 0 0 0 0 0 0 0 0 0 0 0 0 0 0 0 0 0 1 0 0 0 0 0 0 0 0 0 0 0 0
0 0 0 0 0 0 0 0 0 0 0 0 0 0 0 0 0 0 0 0 0 0 0 0 0 0 0 0 0 0 0 0 0 0 0 0 0 0 0 0 0 0 0 0
0 0 0 0 0 0 0 0 0 0 0 0 0 0 0 0 0 0 0 0 0 0 0 0 0 0 0 0 0 0 0 0 0 0 0 0 0 0 0 0 0 0 0 0
0 0 0 0 0 0 0 0 0 0 0 0 0 0 0 0 0 0 0 0 0 0 0 0 0 0 0 0 0 0 0 0 0 0 0 0 0 0 0 0 0 0 0 0
0 0 0 0 0 0 0 0 0 0 0 0 0 0 0 0 0 0 0 0 0 0 0 0 0 0 0 0 0 0 0 0 0 0 0 0 0 0 0 0 0 0 0 0
0 0 0 0 0 0 0 0 0 0 0 0 0 0 0 0 0 0 0 0 0 0 0 0 0 0 0 0 0 0 0 0 0 0 0 0 0 0 0 0 0 0 0 0
0 0 0 0 0 0 0 0 0 0 0 0 0 0 0 0 0 0 0 0 0 0 0 0 0 0 0 0 0 0 0 0 0 0 0 0 0 0 0 0 0 0 0 0
0 0 0 0 0 0 0 0 0 0 0 0 0 0 0 0 0 0 0 0 0 0 0 0 0 0 0 0 0 0 0 0 0 0 0 0 0 0 0 0 0 0 0 0
0 0 0 0 0 0 0 0 0 0 0 0 0 0 0 0 0 0 0 0 0 0 0 0 0 0 0 0 0 0 0 0 0 0 0 0 0 0 0 0 0 0 0 0
0 0 0 0 0 0 0 0 0 0 0 0 0 0 0 0 0 0 0 0 0 0 0 0 0 0 0 0 0 0 0 0 0 0 0 0 0 0 0 0 0 0 0 0
0 0 0 0 0 0 0 0 0 0 0 0 0 0 0 0 0 0 0 0 0 0 0 0 0 0 0 0 0 0 0 0 0 0 0 0 0 0 0 0 0 0 0 0
0 0 0 0 0 0 0 0 0 0 0 0 0 0 0 0 0 0 0 0 0 0 0 0 0 0 0 0 0 0 0 0 0 0 0 0 0 0 0 0 0 0 0 0
0 0 0 0 0 0 0 0 0 0 0 0 0 0 0 0 0 0 0 0 0 0 0 0 0 0 0 0 0 0 0 0 0 0 0 0 0 0 0 0 0 0 0 0
0 0 0 0 0 0 0 0 0 0 0 0 0 0 0 0 0 0 0 0 0 0 0 0 0 0 0 0 0 0 0 0 0 0 0 0 0 0 0 0 0 0 0 0
0 0 0 0 0 0 0 0 0 0 0 0 0 0 0 0 0 0 0 0 0 0 0 0 0 0 0 0 0 0 0 0 0 0 0 0 0 0 0 0 0 0 0 0
0 0 0 0 0 0 0 0 0 0 0 0 0 0 0 0 0 0 0 0 0 0 0 0 0 0 0 0 0 0 0 0 0 0 0 0 0 0 0 0 0 0 0 0
0 0 0 0 0 0 0 0 0 0 0 0 0 0 0 0 0 0 0 0 0 0 0 0 0 0 0 0 0 0 0 0 0 0 0 0 0 0 0 0 0 0 0 0
0 0 0 0 0 0 0 0 0 0 0 0 0 0 0 0 0 0 0 0 0 0 0 0 0 0 0 0 0 0 0 0 0 0 0 0 0 0 0 0 0 0 0 0
0 0 0 0 0 0 0 0 0 0 0 0 0 0 0 0 0 0 0 0 0 0 0 0 0 0 0 0 0 0 0 0 0 0 0 0 0 0 0 0 0 0 0 0
0 0 0 0 0 0 0 0 0 0 0 0 0 0 0 0 0 0 0 0 0 0 0 0 0 0 0 0 0 0 0 0 0 0 0 0 0 0 0 0 0 0 0 0
Wind_Speed
6 5 7 8 10 8 6 6 7 5 2 4 7 10 9 7 7 7 7 6 5 5 5 5 5 4 4 4 4 4 4 3 3 2 2 2 2 1 1 1 2 2 1 1
4 8 8 6 6 8 8 8 7 4 3 4 7 11 10 9 9 8 7 6 5 4 4 5 5 4 4 4 4 4 4 4 3 3 2 2 2 2 2 1 1 2 2 1
8 4 5 7 7 9 9 8 7 4 4 5 6 9 9 8 8 7 7 6 6 6 6 5 5 4 4 4 4 3 4 4 3 3 2 2 2 1 1 1 1 1 1 2
7 6 5 6 7 7 7 4 4 3 3 4 3 6 6 7 7 7 7 5 6 5 5 5 5 4 4 4 4 3 4 4 4 4 3 4 3 2 2 2 2 2 2 1
5 4 5 7 7 6 4 1 3 4 4 5 5 6 7 6 7 7 7 7 6 5 5 6 5 5 4 3 3 3 3 4 4 4 4 4 3 2 1 1 2 2 2 2
6 4 3 4 3 3 1 0 1 3 2 6 7 7 7 5 7 7 7 6 6 5 5 5 5 5 4 3 3 3 3 3 4 4 4 4 4 3 2 2 2 2 1 1
5 6 4 1 2 4 3 3 1 2 4 7 5 6 7 3 4 4 6 6 5 5 5 5 5 5 4 4 4 3 3 3 3 4 4 4 4 3 4 3 3 2 2 2
4 5 6 4 5 4 7 5 4 4 4 2 3 7 5 2 4 4 4 5 5 5 4 4 4 4 4 4 4 4 3 3 3 3 3 3 3 3 3 3 2 3 2 3
3 3 2 3 2 2 4 5 2 2 3 3 5 4 2 3 3 3 4 4 4 4 4 4 3 4 4 4 4 4 4 3 3 3 3 3 4 3 3 3 2 2 2 2
1 2 2 2 2 3 3 2 2 3 3 4 5 6 4 5 4 4 4 4 3 3 3 3 3 3 3 4 3 4 4 3 3 3 3 3 3 3 3 3 3 3 3 2
2 2 2 3 7 6 5 3 3 3 3 3 4 4 0 4 5 5 4 4 4 4 3 3 3 3 3 3 3 3 3 3 3 3 3 3 3 3 3 3 3 3 2 3
2 2 4 5 3 2 4 6 5 4 5 4 3 5 1 2 3 4 4 3 3 3 2 3 3 3 3 2 2 3 3 3 2 2 2 2 2 3 3 3 3 3 3 3
2 2 1 2 2 1 3 4 4 3 2 4 5 6 0 1 2 2 3 3 3 3 2 2 2 2 2 2 2 2 2 2 2 2 2 2 2 2 3 3 3 3 3 3
2 4 6 6 3 2 5 6 6 5 5 6 8 7 5 3 2 1 1 2 3 3 3 3 3 3 2 2 2 2 2 2 2 2 2 2 2 2 2 2 3 3 3 3
2 4 5 7 7 6 7 8 9 10 10 9 9 9 9 5 4 3 3 3 3 3 4 4 4 3 3 2 2 2 2 2 2 2 2 2 2 2 2 2 2 2 3 3
2 3 3 6 6 7 10 11 12 12 12 13 12 13 8 5 4 4 3 3 3 3 3 3 3 3 3 3 3 3 3 2 2 2 2 2 2 2 2 2 2 2 2 2
4 3 3 5 4 4 10 11 13 11 10 10 13 12 4 3 4 4 4 4 3 3 2 3 3 3 3 3 3 3 3 2 2 2 2 2 2 2 2 2 2 3 3 2
4 4 3 3 2 9 8 3 7 9 10 10 8 6 5 5 4 3 3 3 3 3 2 3 3 2 2 2 2 2 3 2 2 2 2 2 2 2 2 2 2 3 2 2
5 5 3 3 5 9 5 3 4 5 8 7 8 7 5 2 2 3 2 2 3 2 2 2 2 2 2 2 3 3 3 3 3 3 3 2 2 2 2 3 3 2 2 2
2 3 3 4 4 7 4 1 1 2 6 4 6 6 4 1 2 4 1 2 1 1 1 1 1 2 2 2 3 3 3 3 3 3 3 2 2 3 3 3 3 2 2 3
4 4 6 7 7 8 3 1 2 3 6 2 4 4 4 4 5 2 1 1 1 1 1 2 2 2 3 3 3 3 3 4 3 2 2 2 2 3 3 2 2 2 2 2
7 6 7 6 7 9 3 4 5 5 2 1 1 1 2 3 2 1 1 1 1 1 1 2 2 2 2 3 4 4 4 3 2 2 2 2 2 2 2 2 2 2 2 2
7 7 5 7 8 4 4 4 4 2 3 3 2 1 1 2 2 1 1 1 1 2 2 2 2 2 2 3 4 4 3 3 2 2 2 2 2 2 2 2 2 2 2 2
5 4 4 6 7 5 4 4 4 3 3 3 2 2 2 3 3 3 2 2 2 2 2 2 2 2 2 3 3 3 3 3 3 3 2 2 2 2 2 2 2 2 2 3
5 4 4 7 7 5 5 5 5 4 3 3 3 2 3 3 4 4 3 3 2 2 2 2 3 3 3 2 3 3 3 3 3 3 2 2 2 2 2 2 3 3 4 4
5 6 6 7 6 5 6 4 4 4 4 4 3 3 3 4 4 4 3 3 2 2 2 2 2 3 3 3 3 3 3 4 3 2 2 2 2 2 2 2 2 4 4 5
Wind_Direction
196 210 218 218 220 241 262 262 261 266 246 227 246 257 253 242 235 232 225 214 204 202 180 169 169 167 164 161 162 169 166 164 154 157 164 165 174 168 148 158 154 161 158 175
211 231 235 238 236 245 251 259 262 268 247 254 260 265 261 243 231 220 214 211 205 186 176 171 166 163 163 163 167 170 163 169 170 171 172 174 166 176 165 162 168 171 166 173
222 237 222 231 237 239 243 244 251 262 293 258 262 271 244 236 221 215 212 200 191 185 183 175 168 166 161 165 169 174 170 171 172 161 157 150 130 118 128 155 170 192 178 174
243 240 242 230 233 235 246 251 256 256 270 261 228 274 250 226 212 207 203 190 185 178 179 171 166 167 167 169 166 172 171 170 168 161 166 166 170 184 197 185 182 181 169 177
242 222 224 233 235 233 244 265 252 241 250 270 241 252 266 212 210 207 195 187 182 175 175 170 167 164 157 155 159 166 166 171 169 172 175 180 187 192 173 156 162 177 177 179
261 269 238 245 244 228 206 194 246 234 240 254 221 218 263 210 206 198 187 180 176 171 165 157 152 147 150 149 155 163 167 173 171 175 180 186 189 181 166 172 182 183 177 188
249 232 221 190 191 197 200 160 189 213 216 240 199 214 247 209 173 164 165 164 164 155 148 150 154 158 161 161 164 173 175 177 177 176 184 190 188 184 185 187 189 186 184 196
237 238 189 192 206 193 206 199 197 213 227 254 212 227 241 138 115 111 123 142 142 143 147 159 166 165 166 165 167 172 177 181 184 190 193 190 187 186 192 194 192 196 202 203
235 243 150 189 221 193 196 219 236 269 283 270 240 237 221 127 128 136 143 142 147 153 153 156 161 159 164 167 172 172 175 181 185 196 198 188 185 190 197 200 195 196 202 204
260 256 206 189 213 241 239 220 155 195 223 249 250 229 221 176 181 173 161 157 154 152 150 153 157 158 161 161 165 167 175 183 184 190 198 193 187 191 196 195 198 200 201 197
260 214 206 192 204 205 193 198 209 223 229 226 257 256 55 162 170 171 167 157 156 158 160 160 158 158 154 150 157 164 172 180 186 189 197 196 196 192 191 197 205 203 201 199
229 208 232 229 224 255 218 206 190 202 235 224 249 266 5 102 145 157 151 142 137 142 151 152 157 156 153 164 172 175 175 179 187 186 193 198 200 192 192 201 207 206 208 208
192 191 228 246 226 251 252 232 226 233 249 232 231 254 134 97 90 129 140 150 153 158 160 156 158 168 173 181 185 181 175 176 176 173 186 201 208 201 205 208 207 208 216 212
246 217 219 231 242 202 234 230 219 211 227 245 238 252 267 268 278 269 189 185 180 184 182 179 186 191 188 191 193 184 175 164 161 166 185 202 214 214 219 220 215 217 221 221
217 238 244 262 272 265 251 237 221 222 228 238 254 256 258 246 248 248 234 209 198 203 198 193 196 196 194 201 202 183 177 176 169 180 198 213 218 224 229 241 238 235 237 236
225 246 269 273 264 261 264 248 236 235 236 245 259 265 256 254 254 257 249 236 228 223 208 202 201 199 200 202 199 186 184 186 175 189 209 212 214 235 238 242 245 240 245 245
200 203 232 261 263 289 262 232 223 227 225 225 241 250 264 272 263 252 246 235 225 228 224 214 212 209 209 206 194 191 186 174 176 186 198 206 211 228 237 241 243 239 237 241
196 202 223 255 256 244 245 205 204 220 236 233 245 255 253 252 261 261 249 223 236 224 222 220 204 199 203 190 176 172 157 166 179 185 198 205 212 229 237 241 244 252 241 236
203 194 213 223 245 267 265 235 193 208 252 229 235 251 258 276 301 278 254 189 193 198 199 205 198 190 193 187 174 160 166 177 187 201 208 209 210 225 235 245 251 256 252 246
211 198 215 228 242 251 253 199 187 168 260 228 215 236 236 198 252 256 171 123 139 150 180 206 203 179 190 195 167 167 187 190 205 213 213 213 214 219 229 243 257 261 258 255
188 208 218 229 244 261 245 180 106 192 251 250 217 227 215 215 221 213 139 161 180 203 210 210 198 191 202 191 166 183 197 207 209 202 208 218 222 225 230 243 252 261 264 262
187 194 205 207 228 248 191 153 195 229 280 306 277 256 226 223 225 208 225 231 215 232 232 211 195 205 200 174 170 198 211 202 180 189 209 222 223 224 218 226 246 245 248 253
206 200 196 206 225 244 192 215 243 292 293 305 313 309 211 218 231 231 246 240 228 222 226 206 192 200 197 178 178 206 212 173 174 192 211 222 225 226 216 216 228 238 241 246
230 213 225 250 256 259 250 255 270 272 267 281 274 264 242 231 228 235 239 236 234 238 230 208 186 202 219 197 193 205 191 173 180 201 215 211 219 232 230 225 222 230 235 243
225 195 226 254 267 283 263 253 260 269 267 263 260 247 238 235 240 239 242 241 233 236 232 203 195 211 223 205 200 192 182 178 191 207 214 217 223 231 234 236 235 236 237 239
216 203 210 240 241 237 260 260 260 259 263 256 247 252 242 232 239 239 238 234 225 226 216 205 207 213 225 208 206 198 186 185 192 208 213 216 218 228 231 243 276 265 254 262